Eastlake, MI

4:24 PM EST on February 10, 2016 (GMT -0500)
Manistee County-Blacker

Weather History for KMBL - February, 2014

Change the Weather History Date:

Thursday, February 20, 2014

  Actual Average Record
Temperature  
Mean Temperature 32 °F -  
Max Temperature 39 °F 34 °F 56 °F (1983)
Min Temperature 24 °F 18 °F -16 °F (2015)
Degree Days  
Heating Degree Days 34    
Moisture  
Dew Point 28 °F    
Average Humidity 79    
Maximum Humidity 93    
Minimum Humidity 60    
Precipitation  
Precipitation 0.06 in - - ()
Sea Level Pressure  
Sea Level Pressure 29.66 in    
Wind  
Wind Speed 9 mph (ESE)    
Max Wind Speed 28 mph    
Max Gust Speed 39 mph    
Visibility 10 miles    
Events Thunderstorm    
Averages and records for this station are not official NWS values.
T = Trace of Precipitation, MM = Missing Value Source: NWS Daily Summary

Daily Weather History Graph

Daily Weather History Graph

Search for Another Location

Airport or City:

Trip Planner

Search our weather history database for the weather conditions in past years. The results will help you decide how hot, cold, wet, or windy it might be!

Date:

Astronomy

Feb. 20, 2014 Rise Set
Actual Time 7:36 AM EST 6:21 PM EST
Civil Twilight 7:07 AM EST 6:50 PM EST
Nautical Twilight 6:33 AM EST 7:24 PM EST
Astronomical Twilight 6:00 AM EST 7:57 PM EST
Moon No Moon Rise 10:06 AM EST (2/20)
Length of Visible Light 11h 43m
Length of Day
10h 44m
Waning Gibbous, 71% of the Moon is Illuminated
Feb 20
Waning Gibbous
Feb 22
Last Quarter
Mar 1
New
Mar 8
First Quarter
Mar 16
Full

Hourly Weather History & Observations

Time (EST) Temp. Windchill Dew Point Humidity Pressure Visibility Wind Dir Wind Speed Gust Speed Precip Events Conditions
12:15 AM 28.4 °F - 21.2 °F 74% 29.94 in 10.0 mi Calm Calm - N/A   Clear
12:35 AM 28.4 °F - 23.0 °F 80% 29.94 in 10.0 mi Calm Calm - N/A   Clear
12:55 AM 28.4 °F 24.6 °F 21.2 °F 74% 29.95 in 10.0 mi East 3.5 mph - N/A   Clear
1:15 AM 28.4 °F 22.2 °F 21.2 °F 74% 29.95 in 10.0 mi East 5.8 mph - N/A   Clear
1:35 AM 28.4 °F 22.2 °F 21.2 °F 74% 29.95 in 10.0 mi East 5.8 mph - N/A   Clear
1:55 AM 26.6 °F 21.2 °F 21.2 °F 80% 29.94 in 10.0 mi East 4.6 mph - N/A   Clear
2:15 AM 28.4 °F 22.2 °F 21.2 °F 74% 29.94 in 10.0 mi East 5.8 mph - N/A   Clear
2:35 AM 26.6 °F 20.0 °F 21.2 °F 80% 29.95 in 10.0 mi ESE 5.8 mph - N/A   Clear
2:55 AM 26.6 °F 20.0 °F 21.2 °F 80% 29.95 in 10.0 mi East 5.8 mph - N/A   Clear
3:15 AM 24.8 °F 17.9 °F 19.4 °F 80% 29.95 in 10.0 mi ESE 5.8 mph - N/A   Clear
3:35 AM 24.8 °F 17.9 °F 19.4 °F 80% 29.93 in 10.0 mi East 5.8 mph - N/A   Clear
3:55 AM 24.8 °F 17.9 °F 21.2 °F 86% 29.93 in 10.0 mi East 5.8 mph - N/A   Clear
4:15 AM 24.8 °F 17.9 °F 19.4 °F 80% 29.92 in 10.0 mi East 5.8 mph - N/A   Clear
4:35 AM 24.8 °F 16.9 °F 21.2 °F 86% 29.92 in 9.0 mi East 6.9 mph - N/A   Clear
4:55 AM 26.6 °F 19.1 °F 21.2 °F 80% 29.91 in 9.0 mi East 6.9 mph - N/A   Clear
5:15 AM 26.6 °F 19.1 °F 21.2 °F 80% 29.90 in 9.0 mi East 6.9 mph - N/A   Clear
5:35 AM 26.6 °F 19.1 °F 23.0 °F 86% 29.90 in 8.0 mi East 6.9 mph - N/A   Partly Cloudy
5:55 AM 28.4 °F 21.2 °F 24.8 °F 86% 29.88 in 8.0 mi East 6.9 mph - N/A   Mostly Cloudy
6:15 AM 28.4 °F 20.4 °F 23.0 °F 80% 29.87 in 9.0 mi East 8.1 mph - N/A   Overcast
6:35 AM 28.4 °F 21.2 °F 24.8 °F 86% 29.86 in 9.0 mi East 6.9 mph - N/A   Overcast
6:55 AM 28.4 °F 21.2 °F 24.8 °F 86% 29.86 in 10.0 mi East 6.9 mph - N/A   Mostly Cloudy
7:15 AM 28.4 °F 22.2 °F 24.8 °F 86% 29.85 in 10.0 mi East 5.8 mph - N/A   Overcast
7:35 AM 28.4 °F 21.2 °F 24.8 °F 86% 29.85 in 9.0 mi East 6.9 mph - N/A   Overcast
7:55 AM 30.2 °F 23.4 °F 24.8 °F 80% 29.84 in 10.0 mi East 6.9 mph - N/A   Mostly Cloudy
8:15 AM 30.2 °F 21.9 °F 24.8 °F 80% 29.83 in 10.0 mi ENE 9.2 mph - N/A   Mostly Cloudy
8:35 AM 30.2 °F 23.4 °F 24.8 °F 80% 29.84 in 10.0 mi East 6.9 mph - N/A   Overcast
8:55 AM 32.0 °F 24.8 °F 24.8 °F 75% 29.84 in 10.0 mi East 8.1 mph - N/A   Overcast
9:15 AM 33.8 °F 26.4 °F 23.0 °F 65% 29.84 in 10.0 mi SSE 9.2 mph - N/A   Overcast
9:35 AM 37.4 °F 30.8 °F 24.8 °F 60% 29.84 in 10.0 mi SSE 9.2 mph - N/A   Overcast
9:55 AM 37.4 °F 30.3 °F 28.4 °F 70% 29.84 in 10.0 mi SE 10.4 mph 16.1 mph N/A   Overcast
10:15 AM 37.4 °F 32.1 °F 30.2 °F 75% 29.83 in 10.0 mi ESE 6.9 mph - N/A   Overcast
10:35 AM 35.6 °F 28.6 °F 32.0 °F 87% 29.81 in 10.0 mi ESE 9.2 mph - N/A   Overcast
10:55 AM 35.6 °F 27.1 °F 32.0 °F 87% 29.80 in 10.0 mi ESE 12.7 mph - N/A   Overcast
11:15 AM 37.4 °F 28.9 °F 32.0 °F 81% 29.78 in 10.0 mi ESE 13.8 mph 18.4 mph N/A   Overcast
11:35 AM 37.4 °F 28.9 °F 32.0 °F 81% 29.77 in 10.0 mi ESE 13.8 mph 20.7 mph N/A   Overcast
11:55 AM 37.4 °F 29.3 °F 30.2 °F 75% 29.75 in 10.0 mi East 12.7 mph 18.4 mph N/A   Overcast
12:15 PM 39.2 °F 30.8 °F 30.2 °F 70% 29.72 in 10.0 mi ESE 15.0 mph 20.7 mph N/A   Overcast
12:35 PM 39.2 °F 30.5 °F 28.4 °F 65% 29.69 in 10.0 mi SE 16.1 mph 28.8 mph N/A   Overcast
12:55 PM 39.2 °F 30.2 °F 28.4 °F 65% 29.68 in 10.0 mi ESE 17.3 mph 29.9 mph N/A   Overcast
1:15 PM 39.2 °F 30.2 °F 26.6 °F 61% 29.68 in 10.0 mi SE 17.3 mph 28.8 mph N/A   Overcast
1:35 PM 39.2 °F 31.2 °F 28.4 °F 65% 29.67 in 10.0 mi ESE 13.8 mph 27.6 mph N/A   Overcast
1:55 PM 39.2 °F 30.5 °F 28.4 °F 65% 29.67 in 10.0 mi ESE 16.1 mph 24.2 mph N/A   Overcast
2:15 PM 39.2 °F 31.6 °F 28.4 °F 65% 29.66 in 10.0 mi SE 12.7 mph 20.7 mph N/A   Overcast
2:35 PM 39.2 °F 30.2 °F 28.4 °F 65% 29.65 in 10.0 mi ESE 17.3 mph 27.6 mph N/A   Overcast
2:55 PM 37.4 °F 26.9 °F 28.4 °F 70% 29.63 in 10.0 mi ESE 20.7 mph 29.9 mph N/A   Overcast
3:15 PM 35.6 °F 24.2 °F 30.2 °F 81% 29.61 in 10.0 mi ESE 21.9 mph 32.2 mph N/A   Overcast
3:35 PM 35.6 °F 25.9 °F 30.2 °F 81% 29.60 in 10.0 mi ESE 16.1 mph 27.6 mph N/A   Overcast
3:55 PM 35.6 °F 24.5 °F 30.2 °F 81% 29.60 in 10.0 mi ESE 20.7 mph 26.5 mph N/A   Overcast
4:15 PM 35.6 °F 25.2 °F 30.2 °F 81% 29.59 in 10.0 mi ESE 18.4 mph 24.2 mph 0.02 in   Overcast
4:35 PM 35.6 °F 23.4 °F 30.2 °F 81% 29.54 in 10.0 mi ESE 25.3 mph 35.7 mph 0.02 in   Overcast
4:55 PM 35.6 °F 23.4 °F 30.2 °F 81% 29.50 in 10.0 mi ESE 25.3 mph 33.4 mph 0.02 in   Overcast
5:15 PM 37.4 °F 25.4 °F 32.0 °F 81% 29.47 in 10.0 mi ESE 27.6 mph 34.5 mph N/A   Overcast
5:35 PM 37.4 °F 25.6 °F 30.2 °F 75% 29.45 in 10.0 mi ESE 26.5 mph 35.7 mph N/A   Overcast
5:55 PM 35.6 °F 25.5 °F 30.2 °F 81% 29.46 in 10.0 mi ESE 17.3 mph 38.0 mph N/A   Overcast
6:15 PM 37.4 °F 26.1 °F 30.2 °F 75% 29.43 in 10.0 mi ESE 24.2 mph 39.1 mph N/A   Overcast
6:35 PM 37.4 °F 26.9 °F 30.2 °F 75% 29.41 in 10.0 mi SE 20.7 mph 39.1 mph N/A   Overcast
6:55 PM 35.6 °F 24.0 °F 30.2 °F 81% 29.39 in 8.0 mi ESE 23.0 mph 33.4 mph 0.02 in   Overcast
7:15 PM 35.6 °F 23.4 °F 30.2 °F 81% 29.36 in 10.0 mi ESE 25.3 mph 34.5 mph N/A   Overcast
7:35 PM 35.6 °F 23.7 °F 30.2 °F 81% 29.35 in 10.0 mi ESE 24.2 mph 32.2 mph N/A   Overcast
7:55 PM 35.6 °F 24.5 °F 32.0 °F 87% 29.33 in 10.0 mi ESE 20.7 mph 32.2 mph N/A   Overcast
8:15 PM 35.6 °F 25.9 °F 32.0 °F 87% 29.32 in 4.0 mi ESE 16.1 mph 31.1 mph 0.01 in Thunderstorm Overcast
8:35 PM 35.6 °F 24.0 °F 32.0 °F 87% 29.29 in 7.0 mi ESE 23.0 mph 29.9 mph 0.02 in   Overcast
8:55 PM 35.6 °F 25.5 °F 32.0 °F 87% 29.28 in 10.0 mi ESE 17.3 mph 35.7 mph 0.02 in   Overcast
9:15 PM 35.6 °F 24.2 °F 33.8 °F 93% 29.26 in 10.0 mi ESE 21.9 mph 29.9 mph N/A   Overcast
9:35 PM 35.6 °F 23.7 °F 32.0 °F 87% 29.22 in 10.0 mi ESE 24.2 mph 34.5 mph N/A   Overcast
9:55 PM 35.6 °F 26.2 °F 33.8 °F 93% 29.21 in 10.0 mi ESE 15.0 mph 26.5 mph N/A   Overcast
10:15 PM 37.4 °F 29.8 °F 33.8 °F 87% 29.19 in 10.0 mi ESE 11.5 mph 20.7 mph N/A   Overcast
10:35 PM 37.4 °F 28.5 °F 33.8 °F 87% 29.20 in 10.0 mi SE 15.0 mph 23.0 mph N/A   Overcast
10:55 PM 37.4 °F 28.9 °F 35.6 °F 93% 29.16 in 10.0 mi SE 13.8 mph 24.2 mph N/A   Overcast
11:15 PM 39.2 °F 31.6 °F 35.6 °F 87% 29.16 in 10.0 mi SE 12.7 mph 26.5 mph N/A   Overcast
11:35 PM 39.2 °F 30.8 °F 37.4 °F 93% 29.16 in 7.0 mi SSE 15.0 mph 23.0 mph N/A   Overcast
11:55 PM 39.2 °F 29.6 °F 37.4 °F 93% 29.17 in 7.0 mi South 19.6 mph 31.1 mph N/A   Overcast